Location: Vienna
(38.9012°N, 77.2653°W)
Time: 21:01:18
(UTC-05:00)

Amateur Radio Satellites - All Passes

Search period start: 23 January 2018 20:31
Search period end: 24 January 2018 20:31
Location: Vienna, 38.9012°N, 77.2653°W

Satellite Date Start Highest point End Downlink Frequencies (MHz)
Time Altitude Azimuth
AO-73 23 Jan 20:33:51 20:37:08 20° 267° (W) 20:40:29 145.935
EO-88 23 Jan 20:34:57 20:37:29 18° 69° (ENE) 20:40:01 145.990 - 145.960
AO-85 23 Jan 20:49:57 20:54:47 46° 244° (WSW) 20:59:49 145.980
STRAND 1 23 Jan 20:55:58 20:59:47 21° 295° (WNW) 21:03:36 437.568
Oscar 11 23 Jan 21:04:35 21:06:58 14° 268° (W) 21:09:21 .
TIGRISAT 23 Jan 21:08:15 21:12:03 24° 94° (E) 21:15:47 435.000
nSIGHT-1 23 Jan 21:16:10 21:17:46 13° 342° (NNW) 21:19:21 .
UNISAT 6 23 Jan 21:24:00 21:28:23 38° 98° (E) 21:32:44 437.425
ISS 23 Jan 21:42:46 21:44:20 13° 344° (NNW) 21:45:55 437.550
LO-87 23 Jan 21:44:15 21:46:21 15° 68° (ENE) 21:48:27 145.935 - 145.965
Max Valier Satellite 23 Jan 21:57:03 22:00:04 23° 264° (W) 22:03:07 145.860
DELFI C3 23 Jan 21:59:28 22:01:53 16° 267° (W) 22:04:18 145.870
EO-88 23 Jan 22:07:50 22:10:54 25° 264° (W) 22:14:00 145.990 - 145.960
ESTCUBE 1 23 Jan 22:10:14 22:14:10 30° 70° (ENE) 22:18:06 437.505/2401.250
PRISM 23 Jan 22:11:53 22:15:09 23° 96° (E) 22:18:25 437.425
YUBILEINY 23 Jan 22:15:53 22:24:15 50° 89° (E) 22:32:36 435.215
AIST 2D 23 Jan 22:42:16 22:45:02 22° 95° (E) 22:47:48 435.315
TIGRISAT 23 Jan 22:44:31 22:48:43 33° 290° (WNW) 22:52:52 435.000
UNISAT 6 23 Jan 23:01:17 23:04:48 21° 293° (WNW) 23:08:17 437.425
SPROUT 23 Jan 23:03:04 23:06:31 25° 69° (ENE) 23:10:00 437.525
NO-84 23 Jan 23:10:55 23:13:44 72° 44° (NE) 23:16:41 435.350 FM
QB50P2 23 Jan 23:13:25 23:16:28 19° 94° (E) 23:19:31 145.880/145.840
LO-87 23 Jan 23:16:18 23:19:27 30° 263° (W) 23:22:39 145.935 - 145.965
VELOX 1 23 Jan 23:31:32 23:35:17 28° 69° (ENE) 23:39:03 145.980
DUCHIFAT 1 23 Jan 23:37:15 23:40:40 23° 95° (E) 23:44:03 145.980
EO-79 23 Jan 23:42:22 23:46:19 35° 98° (E) 23:50:15 145.935-145.965
O/OREOS (USA 219) 23 Jan 23:45:39 23:50:08 73° 109° (ESE) 23:54:37 437.305
PRISM 23 Jan 23:46:58 23:50:20 25° 291° (WNW) 23:53:43 437.425
ESTCUBE 1 23 Jan 23:47:17 23:50:56 24° 265° (W) 23:54:36 437.505/2401.250
YUBILEINY 24 Jan 00:13:26 00:21:14 34° 288° (WNW) 00:29:05 435.215
AIST 2D 24 Jan 00:15:37 00:18:02 18° 290° (WNW) 00:20:26 435.315
POLYITAN 1 24 Jan 00:18:03 00:22:22 86° 279° (W) 00:26:38 437.675
BUGSAT 1 24 Jan 00:25:44 00:28:38 18° 94° (E) 00:31:31 437.445
nSIGHT-1 24 Jan 00:30:09 00:32:19 17° 23° (NNE) 00:34:29 .
NANOSAT C BR1 24 Jan 00:30:26 00:34:42 71° 284° (WNW) 00:38:54 145.865
SPROUT 24 Jan 00:38:45 00:42:17 26° 264° (W) 00:45:52 437.525
AO-91 24 Jan 00:39:19 00:42:54 21° 95° (E) 00:46:41 145.960
QB50P2 24 Jan 00:48:26 00:52:19 34° 289° (WNW) 00:56:10 145.880/145.840
UKube-1 24 Jan 00:54:04 00:57:38 26° 69° (ENE) 01:01:11 .
ISS 24 Jan 00:57:03 00:59:31 19° 24° (NNE) 01:02:00 437.550
Oscar 19 24 Jan 00:59:53 01:04:16 27° 96° (E) 01:08:36 437.125/150
50 SAT 24 Jan 01:03:56 01:06:51 43° 75° (ENE) 01:09:48 437.505
VELOX 1 24 Jan 01:08:09 01:11:40 24° 265° (W) 01:15:13 145.980
DX 1 24 Jan 01:12:25 01:16:43 72° 75° (ENE) 01:21:03 434.975-435.025
DUCHIFAT 1 24 Jan 01:12:39 01:16:15 27° 290° (WNW) 01:19:51 145.980
Gurwin Techsat 1B 24 Jan 01:12:48 01:17:19 28° 96° (E) 01:21:49 435.225
EO-79 24 Jan 01:18:48 01:21:47 19° 293° (WNW) 01:24:45 145.935-145.965
FALCONSAT 3 24 Jan 01:27:51 01:29:20 12° 152° (SSE) 01:30:49 435.103
O/OREOS (USA 219) 24 Jan 01:28:28 01:30:03 12° 307° (NW) 01:31:40 437.305
MOZHAYETS 4 24 Jan 01:54:36 01:58:46 34° 71° (ENE) 02:02:57
ITUPSAT 1 24 Jan 01:57:06 02:00:43 22° 66° (ENE) 02:04:21 437.325
BUGSAT 1 24 Jan 02:00:10 02:04:03 36° 289° (WNW) 02:07:56 437.445
nSIGHT-1 24 Jan 02:05:37 02:08:48 77° 220° (SW) 02:11:58 .
CUBESAT XI-V 24 Jan 02:09:23 02:11:20 12° 63° (ENE) 02:13:16 437.345
AO-91 24 Jan 02:14:59 02:19:21 41° 287° (WNW) 02:24:06 145.960
AO-7 24 Jan 02:18:52 02:24:39 20° 93° (E) 02:30:22 .
UKube-1 24 Jan 02:30:00 02:33:32 25° 264° (W) 02:37:07 .
ISS 24 Jan 02:33:00 02:36:15 61° 222° (SW) 02:39:28 437.550
BEESAT 24 Jan 02:33:12 02:37:47 51° 72° (ENE) 02:42:25 436.000
Oscar 19 24 Jan 02:38:57 02:43:33 33° 292° (WNW) 02:48:07 437.125/150
Gurwin Techsat 1B 24 Jan 02:52:29 02:57:15 34° 291° (WNW) 03:02:00 435.225
FALCONSAT 3 24 Jan 03:04:29 03:07:50 33° 166° (SSE) 03:11:11 435.103
MOZHAYETS 4 24 Jan 03:32:23 03:35:57 22° 266° (W) 03:39:33
ITUPSAT 1 24 Jan 03:33:50 03:38:16 38° 262° (W) 03:42:45 437.325
CUBESAT XI-V 24 Jan 03:43:25 03:48:06 68° 259° (W) 03:52:46 437.345
ITAMSAT 1 24 Jan 03:52:13 03:57:23 61° 102° (ESE) 04:02:31 435.822/435.867
DOVE 4 24 Jan 04:08:05 04:11:41 23° 96° (E) 04:15:25 437.250
AO-7 24 Jan 04:09:47 04:18:11 80° 290° (WNW) 04:26:30 .
BEESAT 24 Jan 04:13:01 04:15:49 16° 268° (W) 04:18:40 436.000
SO-50 24 Jan 04:17:58 04:22:18 56° 118° (ESE) 04:26:44 436.795
KKS-1 24 Jan 04:34:18 04:38:38 61° 74° (ENE) 04:43:01 437.445
STARS 24 Jan 04:40:40 04:44:20 27° 69° (ENE) 04:48:00 437.465
FALCONSAT 3 24 Jan 04:43:04 04:46:37 49° 181° (S) 04:50:11 435.103
M-CUBED/EXP-1 PRIME 24 Jan 05:10:27 05:13:41 57° 106° (ESE) 05:16:52 437.505
XW-2C 24 Jan 05:21:30 05:23:56 16° 93° (E) 05:26:21 145.795 - 145.815
LilacSat-2 24 Jan 05:23:42 05:26:28 19° 94° (E) 05:29:13 437.200
ITAMSAT 1 24 Jan 05:33:06 05:36:19 17° 298° (WNW) 05:39:30 435.822/435.867
DOVE 4 24 Jan 05:45:26 05:49:21 31° 289° (WNW) 05:53:26 437.250
KAITUO 1B 24 Jan 05:45:37 05:48:33 22° 95° (E) 05:51:28 145.475/437.950
NUDT-PHONESAT 24 Jan 05:49:46 05:52:45 23° 96° (E) 05:55:42 437.300
CUTE-I 24 Jan 05:51:15 05:56:01 33° 97° (E) 06:00:46 437.470
XW-2F 24 Jan 05:53:21 05:56:51 38° 98° (E) 06:00:19 145.980 - 146.000
SO-50 24 Jan 06:00:04 06:03:07 18° 316° (NW) 06:06:13 436.795
RS-15 24 Jan 06:01:10 06:10:45 28° 102° (ESE) 06:20:16 29.354- 29.394
AO-7 24 Jan 06:04:32 06:09:39 18° 309° (NW) 06:14:46 .
XW-2D 24 Jan 06:06:07 06:09:51 66° 101° (ESE) 06:13:32 145.860 - 145.880
HO-68 24 Jan 06:09:45 06:15:39 27° 95° (E) 06:21:31 435.675
KKS-1 24 Jan 06:14:19 06:15:33 11° 269° (W) 06:16:47 437.445
STARS 24 Jan 06:17:00 06:20:35 25° 264° (W) 06:24:12 437.465
FALCONSAT 3 24 Jan 06:22:08 06:25:24 30° 196° (SSW) 06:28:39 435.103
XW-2B 24 Jan 06:23:52 06:27:37 75° 284° (WNW) 06:31:20 145.730 - 145.750
UWE-3 24 Jan 06:28:29 06:29:40 11° 89° (E) 06:30:51 435.000/436.395/437.385
CUBEBUG 2 24 Jan 06:28:45 06:32:25 22° 93° (E) 06:36:01 437.445
STRAND 1 24 Jan 06:30:33 06:35:31 56° 73° (ENE) 06:40:31 437.568
FO-29 24 Jan 06:40:26 06:46:24 36° 69° (ENE) 06:51:46 435.910
SEEDS 24 Jan 06:54:19 06:58:08 34° 97° (E) 07:01:55 437.485
XW-2C 24 Jan 06:54:52 06:58:08 29° 289° (WNW) 07:01:22 145.795 - 145.815
LilacSat-2 24 Jan 06:57:35 07:00:42 25° 289° (WNW) 07:03:48 437.200
CUTE 1.7 + AOD 2 24 Jan 07:13:58 07:18:11 77° 283° (WNW) 07:22:21 437.475
KAITUO 1B 24 Jan 07:19:35 07:22:23 21° 290° (WNW) 07:25:10 145.475/437.950
NUDT-PHONESAT 24 Jan 07:23:44 07:26:25 20° 291° (WNW) 07:29:05 437.300
XW-2F 24 Jan 07:28:48 07:30:34 13° 293° (WNW) 07:32:21 145.980 - 146.000
CUTE-I 24 Jan 07:31:22 07:35:57 30° 293° (WNW) 07:40:31 437.470
HO-68 24 Jan 07:56:43 08:03:38 54° 292° (WNW) 08:10:33 435.675
PCSat 24 Jan 07:59:19 08:03:23 22° 106° (ESE) 08:07:29 145.827
AAUSAT CUBESAT 2 24 Jan 07:59:35 08:03:42 85° 106° (ESE) 08:07:48 437.432
UWE-3 24 Jan 08:01:55 08:06:34 68° 284° (WNW) 08:11:06 435.000/436.395/437.385
FALCONSAT 3 24 Jan 08:03:37 08:03:50 10° 210° (SSW) 08:04:03 435.103
BEESAT 3 24 Jan 08:04:07 08:07:37 31° 114° (ESE) 08:11:09 437.485
CUBEBUG 2 24 Jan 08:04:43 08:09:04 36° 289° (WNW) 08:13:22 437.445
TIGRISAT 24 Jan 08:06:13 08:09:12 18° 65° (ENE) 08:12:15 435.000
RS-15 24 Jan 08:09:36 08:21:59 81° 302° (WNW) 08:34:13 29.354- 29.394
STRAND 1 24 Jan 08:12:01 08:15:01 16° 268° (W) 08:18:03 437.568
ZACube-1 24 Jan 08:17:05 08:21:39 89° 257° (WSW) 08:26:05 437.345
XW-2A 24 Jan 08:18:35 08:21:52 57° 285° (WNW) 08:25:07 145.665 - 145.685
O/OREOS (USA 219) 24 Jan 08:19:45 08:21:24 12° 53° (NE) 08:23:02 437.305
AO-73 24 Jan 08:21:29 08:26:02 89° 114° (ESE) 08:30:26 145.935
UNISAT 6 24 Jan 08:21:36 08:25:23 28° 69° (ENE) 08:29:16 437.425
FO-29 24 Jan 08:25:20 08:31:24 35° 262° (W) 08:36:53 435.910
YUBILEINY 24 Jan 08:28:21 08:34:50 22° 66° (ENE) 08:41:16 435.215
SEEDS 24 Jan 08:30:42 08:33:32 18° 293° (WNW) 08:36:21 437.485
Oscar 11 24 Jan 08:50:33 08:54:52 71° 284° (WNW) 08:59:07 .
PRISM 24 Jan 09:00:46 09:03:00 15° 66° (ENE) 09:05:15 437.425
BEESAT 2 24 Jan 09:01:16 09:04:53 33° 114° (ESE) 09:08:31 435.950
JUGNU 24 Jan 09:21:49 09:22:14 10° 174° (S) 09:22:40 437.505
Max Valier Satellite 24 Jan 09:27:18 09:30:37 31° 97° (E) 09:33:53 145.860
DELFI C3 24 Jan 09:35:19 09:39:14 66° 101° (E) 09:43:09 145.870
EO-88 24 Jan 09:37:01 09:40:05 25° 96° (E) 09:43:07 145.990 - 145.960
PCSat 24 Jan 09:41:12 09:46:25 48° 303° (WNW) 09:51:40 145.827
TIGRISAT 24 Jan 09:41:18 09:45:30 42° 262° (W) 09:49:51 435.000
BEESAT 3 24 Jan 09:41:57 09:45:09 23° 310° (NW) 09:48:22 437.485
O/OREOS (USA 219) 24 Jan 09:56:51 10:01:19 72° 252° (WSW) 10:05:47 437.305
UNISAT 6 24 Jan 09:58:20 10:02:01 25° 265° (W) 10:05:49 437.425
QB50P2 24 Jan 10:05:53 10:07:48 13° 64° (ENE) 10:09:42 145.880/145.840
YUBILEINY 24 Jan 10:23:48 10:32:30 74° 266° (W) 10:41:07 435.215
RS-15 24 Jan 10:26:28 10:36:39 29° 328° (NNW) 10:46:41 29.354- 29.394
DUCHIFAT 1 24 Jan 10:28:31 10:30:57 15° 65° (ENE) 10:33:25 145.980
EO-79 24 Jan 10:33:42 10:37:03 23° 68° (ENE) 10:40:25 145.935-145.965
PRISM 24 Jan 10:34:03 10:37:54 42° 261° (W) 10:41:46 437.425
BEESAT 2 24 Jan 10:39:27 10:42:38 22° 311° (NW) 10:45:50 435.950
LO-87 24 Jan 10:44:07 10:46:54 21° 95° (E) 10:49:40 145.935 - 145.965
AIST 2D 24 Jan 10:46:56 10:50:26 64° 259° (W) 10:53:56 435.315
Max Valier Satellite 24 Jan 11:01:56 11:04:08 15° 292° (WNW) 11:06:19 145.860
AO-85 24 Jan 11:03:14 11:07:09 85° 119° (ESE) 11:11:22 145.980
POLYITAN 1 24 Jan 11:08:48 11:12:57 58° 74° (ENE) 11:17:10 437.675
JUGNU 24 Jan 11:09:15 11:10:17 10° 185° (S) 11:11:20 437.505
EO-88 24 Jan 11:11:02 11:13:30 18° 291° (WNW) 11:15:57 145.990 - 145.960
BUGSAT 1 24 Jan 11:16:01 11:17:03 11° 63° (ENE) 11:18:06 437.445
NANOSAT C BR1 24 Jan 11:20:36 11:24:47 70° 75° (ENE) 11:29:01 145.865
QB50P2 24 Jan 11:38:56 11:43:04 54° 260° (W) 11:47:16 145.880/145.840
ESTCUBE 1 24 Jan 11:39:42 11:44:12 78° 102° (ESE) 11:48:39 437.505/2401.250
DUCHIFAT 1 24 Jan 12:02:13 12:06:13 43° 261° (W) 12:10:16 145.980
EO-79 24 Jan 12:09:01 12:12:38 27° 264° (W) 12:16:18 145.935-145.965
Oscar 19 24 Jan 12:15:18 12:20:00 36° 69° (ENE) 12:24:44 437.125/150
LO-87 24 Jan 12:17:21 12:20:10 22° 290° (WNW) 12:23:00 145.935 - 145.965
SPROUT 24 Jan 12:24:26 12:28:40 55° 100° (E) 12:32:53 437.525
YUBILEINY 24 Jan 12:24:42 12:27:38 12° 285° (WNW) 12:30:34 435.215
Gurwin Techsat 1B 24 Jan 12:32:30 12:37:24 40° 70° (ENE) 12:42:21 435.225
AO-85 24 Jan 12:46:47 12:48:15 12° 321° (NW) 12:49:45 145.980
RS-15 24 Jan 12:47:12 12:54:59 19° 4° (N) 13:02:32 29.354- 29.394
BUGSAT 1 24 Jan 12:47:47 12:51:49 61° 259° (W) 12:55:57 437.445
POLYITAN 1 24 Jan 12:47:57 12:49:04 11° 270° (W) 12:50:12 437.675
SO-50 24 Jan 12:50:08 12:54:32 37° 52° (NE) 12:58:58 436.795
VELOX 1 24 Jan 12:58:00 13:02:24 68° 102° (ESE) 13:06:46 145.980
DX 1 24 Jan 13:03:23 13:05:29 13° 92° (E) 13:07:34 434.975-435.025
AO-91 24 Jan 13:11:48 13:15:02 46° 260° (W) 13:18:27 145.960
AO-7 24 Jan 13:16:32 13:23:15 28° 57° (ENE) 13:30:00 .
SRMSAT 24 Jan 13:24:34 13:26:26 11° 180° (S) 13:28:16 437.500
ITAMSAT 1 24 Jan 13:35:07 13:35:26 10° 58° (ENE) 13:35:45 435.822/435.867
50 SAT 24 Jan 13:50:37 13:53:33 38° 99° (E) 13:56:28 437.505
Oscar 19 24 Jan 13:55:04 13:59:20 26° 265° (W) 14:03:39 437.125/150
SPROUT 24 Jan 14:02:06 14:04:03 13° 296° (WNW) 14:06:00 437.525
Gurwin Techsat 1B 24 Jan 14:13:13 14:17:27 24° 265° (W) 14:21:42 435.225
UKube-1 24 Jan 14:17:04 14:21:18 54° 101° (E) 14:25:31 .
NO-84 24 Jan 14:25:36 14:27:11 13° 126° (SE) 14:28:43 435.350 FM
SO-50 24 Jan 14:30:58 14:34:48 25° 248° (WSW) 14:38:40 436.795
BEESAT 24 Jan 14:36:00 14:38:29 14° 92° (E) 14:40:58 436.000
VELOX 1 24 Jan 14:36:55 14:38:14 11° 297° (WNW) 14:39:32 145.980
DX 1 24 Jan 14:37:42 14:41:54 50° 287° (WNW) 14:46:06 434.975-435.025
RS-15 24 Jan 15:01:58 15:12:34 36° 38° (NE) 15:22:36 29.354- 29.394
AO-7 24 Jan 15:07:04 15:15:21 67° 255° (WSW) 15:23:43 .
ITAMSAT 1 24 Jan 15:08:52 15:14:02 83° 75° (ENE) 15:19:14 435.822/435.867
DOVE 4 24 Jan 15:13:17 15:16:13 19° 68° (ENE) 15:19:07 437.250
MOZHAYETS 4 24 Jan 15:27:10 15:31:49 86° 284° (WNW) 15:36:25
ITUPSAT 1 24 Jan 15:34:58 15:39:44 58° 101° (E) 15:44:27 437.325
CUBESAT XI-V 24 Jan 15:41:24 15:45:30 31° 97° (E) 15:49:34 437.345
M-CUBED/EXP-1 PRIME 24 Jan 15:53:48 15:58:02 64° 70° (ENE) 16:01:59 437.505
UKube-1 24 Jan 15:54:47 15:56:49 13° 296° (WNW) 15:58:51 .
NO-84 24 Jan 16:00:59 16:04:05 45° 319° (NW) 16:07:00 435.350 FM
BEESAT 24 Jan 16:11:53 16:16:35 57° 287° (WNW) 16:21:15 436.000
BEESAT 3 24 Jan 16:22:21 16:24:33 14° 45° (NE) 16:26:43 437.485
KKS-1 24 Jan 16:28:09 16:30:07 13° 92° (E) 16:32:06 437.445
XW-2F 24 Jan 16:33:33 16:35:58 16° 68° (ENE) 16:38:23 145.980 - 146.000
HO-68 24 Jan 16:38:43 16:43:23 19° 57° (ENE) 16:48:03 435.675
XW-2D 24 Jan 16:46:03 16:49:15 26° 71° (ENE) 16:52:26 145.860 - 145.880
PCSat 24 Jan 16:47:57 16:51:24 17° 45° (NE) 16:54:50 145.827
DOVE 4 24 Jan 16:49:53 16:53:42 32° 263° (W) 16:57:27 437.250
ITAMSAT 1 24 Jan 16:53:20 16:54:04 10° 270° (W) 16:54:50 435.822/435.867
XW-2B 24 Jan 17:03:23 17:06:58 40° 73° (ENE) 17:10:33 145.730 - 145.750
AO-7 24 Jan 17:08:24 17:09:29 10° 273° (W) 17:10:36 .
CUTE-I 24 Jan 17:11:42 17:16:46 48° 71° (ENE) 17:21:51 437.470
ITUPSAT 1 24 Jan 17:14:19 17:17:02 15° 297° (WNW) 17:19:46 437.325
RS-15 24 Jan 17:14:31 17:26:07 76° 244° (WSW) 17:37:07 29.354- 29.394
CUBESAT XI-V 24 Jan 17:19:02 17:22:41 24° 292° (WNW) 17:26:18 437.345
BEESAT 2 24 Jan 17:20:21 17:22:51 16° 45° (NE) 17:25:21 435.950
CUBEBUG 2 24 Jan 17:26:21 17:28:57 15° 64° (ENE) 17:31:36 437.445
M-CUBED/EXP-1 PRIME 24 Jan 17:32:26 17:32:36 10° 263° (W) 17:32:46 437.505
XW-2C 24 Jan 17:33:43 17:37:33 78° 259° (W) 17:41:23 145.795 - 145.815
LilacSat-2 24 Jan 17:37:00 17:40:49 64° 259° (W) 17:44:39 437.200
SEEDS 24 Jan 17:45:01 17:48:10 21° 68° (ENE) 17:51:20 437.485
KAITUO 1B 24 Jan 17:56:48 18:00:30 56° 260° (W) 18:04:11 145.475/437.950
BEESAT 3 24 Jan 17:58:34 18:02:23 54° 243° (WSW) 18:06:08 437.485
NUDT-PHONESAT 24 Jan 17:59:54 18:03:33 54° 260° (W) 18:07:13 437.300
KKS-1 24 Jan 18:02:36 18:06:58 55° 287° (WNW) 18:11:20 437.445
CUTE 1.7 + AOD 2 24 Jan 18:04:46 18:08:57 61° 76° (ENE) 18:13:10 437.475
STARS 24 Jan 18:06:18 18:10:41 61° 101° (ESE) 18:15:04 437.465
XW-2F 24 Jan 18:06:23 18:09:47 31° 263° (W) 18:13:12 145.980 - 146.000
XW-2D 24 Jan 18:20:34 18:23:22 19° 266° (W) 18:26:10 145.860 - 145.880
HO-68 24 Jan 18:23:05 18:30:14 83° 255° (WSW) 18:37:27 435.675
PCSat 24 Jan 18:30:00 18:35:26 79° 244° (WSW) 18:40:50 145.827
XW-2B 24 Jan 18:39:36 18:41:17 12° 268° (W) 18:42:58 145.730 - 145.750
nSIGHT-1 24 Jan 18:41:07 18:44:13 58° 138° (SE) 18:47:19 .
STRAND 1 24 Jan 18:42:58 18:46:51 21° 94° (E) 18:50:42 437.568
XW-2A 24 Jan 18:47:57 18:51:00 32° 73° (ENE) 18:54:05 145.665 - 145.685
AAUSAT CUBESAT 2 24 Jan 18:47:58 18:51:53 44° 73° (ENE) 18:55:49 437.432
CUTE-I 24 Jan 18:53:12 18:57:02 20° 267° (W) 19:00:52 437.470
UWE-3 24 Jan 18:56:51 19:01:18 81° 78° (ENE) 19:05:55 435.000/436.395/437.385
BEESAT 2 24 Jan 18:56:58 19:00:51 50° 243° (WSW) 19:04:39 435.950
CUBEBUG 2 24 Jan 19:00:48 19:05:04 49° 261° (W) 19:09:31 437.445
ZACube-1 24 Jan 19:10:52 19:15:15 59° 74° (ENE) 19:19:45 437.345
ISS 24 Jan 19:11:42 19:14:57 81° 140° (SE) 19:18:13 437.550
AO-73 24 Jan 19:14:56 19:19:18 57° 74° (ENE) 19:23:46 145.935
SEEDS 24 Jan 19:19:57 19:23:39 30° 263° (W) 19:27:22 437.485
RS-15 24 Jan 19:30:43 19:36:16 15° 264° (W) 19:41:44 29.354- 29.394
AO-85 24 Jan 19:34:32 19:39:25 54° 55° (NE) 19:44:35 145.980
FO-29 24 Jan 19:35:24 19:39:53 29° 97° (E) 19:44:30 435.910
Oscar 11 24 Jan 19:43:28 19:47:48 73° 76° (ENE) 19:52:09 .
CUTE 1.7 + AOD 2 24 Jan 19:44:30 19:45:08 10° 270° (W) 19:45:46 437.475
STARS 24 Jan 19:44:37 19:46:29 13° 297° (WNW) 19:48:20 437.465
Max Valier Satellite 24 Jan 20:06:06 20:07:49 13° 66° (ENE) 20:09:30 145.860
EO-88 24 Jan 20:15:56 20:16:10 10° 65° (ENE) 20:16:24 145.990 - 145.960
HO-68 24 Jan 20:16:02 20:18:54 13° 271° (W) 20:21:46 435.675
nSIGHT-1 24 Jan 20:18:14 20:20:36 19° 335° (NNW) 20:22:57 .
DELFI C3 24 Jan 20:19:12 20:22:36 29° 71° (ENE) 20:26:01 145.870
STRAND 1 24 Jan 20:21:19 20:26:10 43° 289° (WNW) 20:31:00 437.568
XW-2A 24 Jan 20:22:21 20:23:47 12° 267° (W) 20:25:13 145.665 - 145.685
AAUSAT CUBESAT 2 24 Jan 20:25:31 20:27:32 13° 268° (W) 20:29:34 437.432
